Back to catalog

STARLINK-35179

AliveCommunicationsVLEO
NORAD 66066·PAYLOAD·🇺🇸 United States

Launched Oct 19, 2025 from Cape Canaveral Space Force Station

Loading…

Next Passes (next 24 hours)

TLE

FreshSource: CelesTrak SupGP

Epoch: Sep 14, 2026, 22:55 UTC

1 66066C 25235J   26257.95534722  .00059413  00000+0  17546-2 0  2573
2 66066  53.1595  85.5319 0001147  80.8797  64.4948 15.34374429    15

Track STARLINK-35179 in real time with AllMySat

Download on the App Store